DW8507 Weather Reports


Display with metric or nautical units.
time (UTC)temp
F
wind
direction
speed
MPH
gust
MPH
rain 1hr
in
rain 24hr
in
rain mn
in
humidity
%
barometer
mb
20260510173157 55 0 0.0 1.0 0.00 0.00 0.00 54 1009.5
20260510172510 55 0 0.0 1.0 0.00 0.00 0.00 54 1009.5
20260510171612 56 0 0.0 0.0 0.00 0.00 0.00 55 1009.3
20260510170457 56 0 0.0 0.0 0.00 0.00 0.00 55 1009.6
20260510165812 56 0 0.0 0.0 0.00 0.00 0.00 55 1009.9
20260510164657 56 0 0.0 0.0 0.00 0.00 0.00 55 1009.7
20260510164012 56 0 0.0 0.0 0.00 0.00 0.00 54 1009.9
20260510163109 56 0 0.0 0.0 0.00 0.00 0.00 55 1009.8
20260510161959 56 0 0.0 0.0 0.00 0.00 0.00 56 1009.9
20260510161057 56 0 0.0 0.0 0.00 0.00 0.00 56 1010.0
20260510160159 56 0 0.0 0.0 0.00 0.00 0.00 56 1010.3
20260510155259 56 0 0.0 0.0 0.00 0.00 0.00 57 1010.2
20260510154358 56 0 0.0 0.0 0.00 0.00 0.00 58 1010.4
20260510153458 56 0 0.0 0.0 0.00 0.00 0.00 59 1010.6
20260510152558 55 0 0.0 0.0 0.00 0.00 0.00 59 1010.6
20260510151659 55 0 0.0 0.0 0.00 0.00 0.00 58 1010.4
20260510150758 56 0 0.0 0.0 0.00 0.00 0.00 60 1010.7
20260510145857 56 0 0.0 0.0 0.00 0.00 0.00 60 1010.9
20260510145000 56 0 0.0 0.0 0.00 0.00 0.00 60 1011.1
20260510144057 56 0 0.0 0.0 0.00 0.00 0.00 61 1011.1
20260510143159 56 0 0.0 0.0 0.00 0.00 0.00 61 1011.0
20260510142257 55 0 0.0 0.0 0.00 0.00 0.00 61 1011.2
20260510141357 55 0 0.0 0.0 0.00 0.00 0.00 62 1011.3
20260510140457 55 0 0.0 0.0 0.00 0.00 0.00 62 1011.2
20260510135557 55 0 0.0 0.0 0.00 0.00 0.00 63 1011.4
20260510134911 55 0 0.0 0.0 0.00 0.00 0.00 63 1011.4
20260510133758 55 0 0.0 0.0 0.00 0.00 0.00 63 1011.3
20260510132902 55 0 0.0 0.0 0.00 0.00 0.00 63 1011.6
20260510131957 55 0 0.0 0.0 0.00 0.00 0.00 63 1011.4
20260510131059 55 0 0.0 0.0 0.00 0.00 0.00 63 1011.5
20260510130158 55 0 0.0 0.0 0.00 0.00 0.00 63 1011.5
20260510125258 55 0 0.0 0.0 0.00 0.00 0.00 63 1011.7
20260510124357 55 0 0.0 0.0 0.00 0.00 0.00 63 1011.8
20260510123459 55 0 0.0 0.0 0.00 0.00 0.00 64 1011.7
20260510122812 55 0 0.0 0.0 0.00 0.00 0.00 64 1011.9
20260510121658 55 0 0.0 0.0 0.00 0.00 0.00 65 1011.9
20260510120757 55 0 0.0 0.0 0.00 0.00 0.00 66 1012.2
20260510115858 54 0 0.0 0.0 0.00 0.00 0.00 69 1012.0
20260510114958 54 0 0.0 0.0 0.00 0.00 0.00 71 1012.1
20260510114057 54 0 0.0 0.0 0.00 0.00 0.00 71 1012.3
20260510113159 54 0 0.0 0.0 0.00 0.00 0.00 71 1012.2
20260510112508 54 0 0.0 0.0 0.00 0.00 0.00 72 1012.5
20260510111358 54 0 0.0 0.0 0.00 0.00 0.00 72 1012.4
20260510110458 54 0 0.0 0.0 0.00 0.00 0.00 72 1012.5
20260510105557 54 0 0.0 2.0 0.00 0.00 0.00 72 1012.6
20260510104657 54 0 0.0 0.0 0.00 0.00 0.00 72 1012.5
20260510103759 54 0 0.0 0.0 0.00 0.00 0.00 72 1012.8
20260510102858 54 0 0.0 0.0 0.00 0.00 0.00 70 1012.7
20260510101958 55 0 0.0 0.0 0.00 0.00 0.00 70 1012.7
20260510101058 54 0 0.0 0.0 0.00 0.00 0.00 72 1012.6
20260510100158 54 0 0.0 0.0 0.00 0.00 0.00 71 1012.7
20260510095257 54 0 0.0 0.0 0.00 0.00 0.00 73 1012.9
20260510094400 54 0 0.0 0.0 0.00 0.00 0.00 74 1012.7
20260510093458 54 0 0.0 0.0 0.00 0.00 0.00 73 1012.8
20260510092557 54 0 0.0 0.0 0.00 0.00 0.00 73 1013.1
20260510091657 54 0 0.0 0.0 0.00 0.00 0.00 73 1012.9
20260510090759 55 0 0.0 0.0 0.00 0.00 0.00 71 1012.9
20260510085858 54 0 0.0 1.0 0.00 0.00 0.00 71 1012.9
20260510085208 55 0 0.0 0.0 0.00 0.00 0.00 70 1012.9
20260510084057 55 0 0.0 0.0 0.00 0.00 0.00 72 1013.2
20260510083158 54 0 0.0 0.0 0.00 0.00 0.00 73 1013.3
20260510082258 54 0 0.0 0.0 0.00 0.00 0.00 74 1013.2
20260510081357 53 0 0.0 0.0 0.00 0.00 0.00 74 1013.1
20260510080457 53 0 0.0 0.0 0.00 0.00 0.00 75 1013.4
20260510075559 53 0 0.0 0.0 0.00 0.00 0.00 74 1013.4
20260510074657 53 0 0.0 0.0 0.00 0.00 0.00 74 1013.3
20260510073757 53 0 0.0 1.0 0.00 0.00 0.00 76 1013.2
20260510072859 53 0 0.0 0.0 0.00 0.00 0.00 77 1013.1
20260510071957 53 0 0.0 0.0 0.00 0.00 0.00 79 1013.1
20260510071057 52 0 0.0 0.0 0.00 0.00 0.00 80 1013.0
20260510070157 52 0 0.0 0.0 0.00 0.00 0.00 81 1013.0
20260510065257 51 0 0.0 0.0 0.00 0.00 0.00 82 1012.9
20260510064611 51 0 0.0 0.0 0.00 0.00 0.00 82 1012.9
20260510063708 51 0 0.0 0.0 0.00 0.00 0.00 83 1013.0
20260510062559 51 0 0.0 0.0 0.00 0.00 0.00 84 1012.8
20260510061659 51 0 0.0 0.0 0.00 0.00 0.00 84 1012.7
20260510060757 50 0 0.0 0.0 0.00 0.00 0.00 85 1012.7
20260510055859 50 0 0.0 0.0 0.00 0.00 0.00 85 1012.7
20260510054959 50 0 0.0 0.0 0.00 0.00 0.00 85 1012.7
20260510054057 50 0 0.0 0.0 0.00 0.00 0.00 85 1012.6
20260510053410 50 0 0.0 0.0 0.00 0.00 0.00 85 1012.7
20260510052257 50 0 0.0 0.0 0.00 0.00 0.00 85 1012.9
20260510051610 50 0 0.0 0.0 0.00 0.00 0.00 85 1012.6
20260510050459 50 0 0.0 0.0 0.00 0.00 0.00 85 1012.7
20260510045809 50 0 0.0 0.0 0.00 0.00 0.00 85 1012.7
20260510044659 50 0 0.0 0.0 0.00 0.00 0.00 85 1012.9
20260510043759 50 0 0.0 0.0 0.00 0.00 0.00 85 1012.5
20260510042857 50 0 0.0 0.0 0.00 0.00 0.00 85 1012.5
20260510042208 50 0 0.0 0.0 0.00 0.00 0.00 85 1012.6
20260510041057 50 0 0.0 1.0 0.00 0.00 0.00 85 1012.8
20260510040158 50 0 0.0 0.0 0.00 0.00 0.00 85 1013.0
20260510035257 50 0 0.0 0.0 0.00 0.00 0.00 85 1012.8
20260510034359 50 0 0.0 0.0 0.00 0.00 0.00 85 1013.0
20260510033457 50 0 0.0 0.0 0.00 0.00 0.00 85 1013.1
20260510032557 50 0 0.0 0.0 0.00 0.00 0.00 86 1013.2
20260510031658 50 0 0.0 0.0 0.00 0.00 0.00 86 1013.0
20260510030758 50 0 0.0 0.0 0.00 0.00 0.00 86 1013.1
20260510025857 50 0 0.0 0.0 0.00 0.00 0.00 86 1012.8
20260510024957 50 0 0.0 0.0 0.00 0.00 0.00 86 1013.0
20260510024057 50 0 0.0 0.0 0.00 0.00 0.00 85 1013.0
20260510023157 49 0 0.0 0.0 0.00 0.00 0.00 84 1013.0
20260510022258 49 0 0.0 0.0 0.00 0.00 0.00 84 1013.2
20260510021358 49 0 0.0 0.0 0.00 0.00 0.00 84 1013.3
20260510020457 49 0 0.0 0.0 0.00 0.00 0.00 83 1013.3
20260510015811 49 0 0.0 0.0 0.00 0.00 0.00 83 1013.1
20260510014703 50 0 0.0 0.0 0.00 0.00 0.00 82 1013.4
20260510014011 50 0 0.0 0.0 0.00 0.00 0.00 82 1013.2
20260510012859 50 0 0.0 0.0 0.00 0.00 0.00 82 1013.4
20260510012211 50 0 0.0 0.0 0.00 0.00 0.00 82 1013.4
20260510011057 50 0 0.0 0.0 0.00 0.00 0.00 81 1013.2
20260510010157 51 0 0.0 0.0 0.00 0.00 0.00 81 1013.2
20260510005257 51 0 0.0 0.0 0.00 0.00 0.00 80 1013.0
20260510004357 51 0 0.0 0.0 0.00 0.00 0.00 80 1013.1
20260510003457 51 0 0.0 0.0 0.00 0.00 0.00 78 1013.2
20260510002558 51 0 0.0 0.0 0.00 0.00 0.00 76 1012.9
20260510001657 51 0 0.0 0.0 0.00 0.00 0.00 75 1012.9
20260510000758 51 0 0.0 0.0 0.00 0.00 0.00 73 1013.1
20260509235857 52 0 0.0 0.0 0.00 0.00 0.00 71 1013.2
20260509234957 52 0 0.0 0.0 0.00 0.00 0.00 70 1012.9
20260509234057 53 0 0.0 0.0 0.00 0.00 0.00 68 1013.2
20260509233408 53 0 0.0 0.0 0.00 0.00 0.00 67 1013.1
20260509232259 53 0 0.0 0.0 0.00 0.00 0.00 63 1012.9
20260509231608 54 0 0.0 0.0 0.00 0.00 0.00 62 1013.1
20260509230457 54 0 0.0 0.0 0.00 0.00 0.00 60 1012.6
20260509225557 54 0 0.0 0.0 0.00 0.00 0.00 57 1012.9
20260509224910 55 0 0.0 0.0 0.00 0.00 0.00 57 1012.7
20260509223758 55 0 0.0 0.0 0.00 0.00 0.00 60 1012.9
20260509222858 55 0 0.0 0.0 0.00 0.00 0.00 61 1012.8
20260509221959 56 0 0.0 0.0 0.00 0.00 0.00 61 1012.9
20260509221059 56 0 0.0 0.0 0.00 0.00 0.00 60 1012.9
20260509220157 56 0 0.0 0.0 0.00 0.00 0.00 60 1012.6
20260509215257 57 0 0.0 0.0 0.00 0.00 0.00 61 1012.4
20260509214357 58 0 0.0 0.0 0.00 0.00 0.00 60 1012.5
20260509213457 58 0 0.0 0.0 0.00 0.00 0.00 58 1012.2
20260509212557 59 0 0.0 0.0 0.00 0.00 0.00 58 1012.1
20260509211659 59 0 0.0 0.0 0.00 0.00 0.00 58 1012.2
20260509210759 59 0 0.0 0.0 0.00 0.00 0.00 57 1012.0
20260509205857 60 0 0.0 0.0 0.00 0.00 0.00 56 1011.8
20260509204959 60 0 0.0 0.0 0.00 0.00 0.00 56 1011.9
20260509204059 60 0 0.0 0.0 0.00 0.00 0.00 54 1011.7
20260509203159 61 0 0.0 0.0 0.00 0.00 0.00 54 1011.4
20260509202508 62 0 0.0 0.0 0.00 0.00 0.00 53 1011.6
20260509201358 62 0 0.0 0.0 0.00 0.00 0.00 52 1011.4
20260509200458 62 0 0.0 0.0 0.00 0.00 0.00 51 1011.3
20260509195810 63 0 0.0 0.0 0.00 0.00 0.00 51 1011.2
20260509194657 63 0 0.0 0.0 0.00 0.00 0.00 50 1011.2
20260509193758 64 0 0.0 0.0 0.00 0.00 0.00 46 1011.2
20260509192857 64 0 0.0 0.0 0.00 0.00 0.00 45 1010.9
20260509192209 65 0 0.0 0.0 0.00 0.00 0.00 44 1010.8
20260509191057 65 0 0.0 0.0 0.00 0.00 0.00 43 1010.8
20260509190159 66 0 0.0 0.0 0.00 0.00 0.00 42 1010.6
20260509185511 66 0 0.0 0.0 0.00 0.00 0.00 42 1010.8
20260509184357 67 0 0.0 0.0 0.00 0.00 0.00 42 1010.5
20260509183457 67 0 0.0 0.0 0.00 0.00 0.00 43 1010.5
20260509182808 67 0 0.0 0.0 0.00 0.00 0.00 43 1010.2
20260509181659 67 0 0.0 0.0 0.00 0.00 0.00 42 1010.4
20260509180759 67 0 0.0 0.0 0.00 0.00 0.00 41 1010.2
20260509180110 67 0 0.0 0.0 0.00 0.00 0.00 41 1010.2
20260509174957 68 0 0.0 0.0 0.00 0.00 0.00 41 1010.4
20260509174310 68 0 0.0 0.0 0.00 0.00 0.00 42 1010.3